Weather History for KFKN - August, 2013

Change the Weather History Date:

Thursday, August 29, 2013

  Actual Average (KSFQ) Record (KSFQ)
Temperature  
Mean Temperature 77 °F -  
Max Temperature 86 °F 86 °F 101 °F (1948)
Min Temperature 66 °F 66 °F 49 °F (1986)
Cooling Degree Days 12    
Growing Degree Days 27 (Base 50)    
Moisture  
Dew Point 72 °F    
Average Humidity 82    
Maximum Humidity 100    
Minimum Humidity 66    
Precipitation  
Precipitation 0.00 in - - ()
Sea Level Pressure  
Sea Level Pressure 29.91 in    
Wind  
Wind Speed 4 mph (NE)    
Max Wind Speed 17 mph    
Max Gust Speed 26 mph    
Visibility 8 miles    
Events      
Averages and records for this station are not official NWS values.
T = Trace of Precipitation, MM = Missing Value Source: NWS Daily Summary

Daily Weather History Graph

Daily Weather History Graph

Search for Another Location

Airport or City:

Trip Planner

Search our weather history database for the weather conditions in past years. The results will help you decide how hot, cold, wet, or windy it might be!

Date:

Astronomy

Aug. 29, 2013 Rise Set
Actual Time 6:36 AM EDT 7:39 PM EDT
Civil Twilight 6:09 AM EDT 8:06 PM EDT
Nautical Twilight 5:38 AM EDT 8:37 PM EDT
Astronomical Twilight 5:05 AM EDT 9:10 PM EDT
Moon 12:31 AM EDT (8/29) 3:02 PM EDT (8/29)
Length of Visible Light 13h 56m
Length of Day
13h 03m
Last Quarter, 38% of the Moon is Illuminated
Aug 29
Last Quarter
Sep 5
New
Sep 12
First Quarter
Sep 19
Full
Sep 26
Last Quarter

Hourly Weather History & Observations

Time (EDT) Temp. Heat Index Dew Point Humidity Pressure Visibility Wind Dir Wind Speed Gust Speed Precip Events Conditions
12:15 AM 77.0 °F - - N/A% 29.85 in 1.8 mi South 3.5 mph - N/A   Overcast
12:55 AM 73.4 °F - - N/A% 29.86 in 0.2 mi NE 6.9 mph - N/A   Overcast
1:15 AM 73.4 °F - - N/A% 29.84 in 0.8 mi South 4.6 mph - N/A   Overcast
1:35 AM 73.4 °F - - N/A% 29.84 in 10.0 mi SSW 3.5 mph - N/A   Overcast
1:55 AM 73.4 °F - - N/A% 29.83 in 10.0 mi Calm Calm - N/A   Scattered Clouds
2:15 AM 73.4 °F - - N/A% 29.82 in 7.0 mi SSW 3.5 mph - N/A   Scattered Clouds
2:35 AM 73.4 °F - - N/A% 29.81 in 5.0 mi Calm Calm - N/A   Scattered Clouds
2:55 AM 73.4 °F - - N/A% 29.81 in 7.0 mi Calm Calm - N/A   Scattered Clouds
3:15 AM 73.4 °F - - N/A% 29.80 in 4.0 mi Calm Calm - N/A   Scattered Clouds
3:35 AM 73.4 °F - - N/A% 29.80 in 5.0 mi Calm Calm - N/A   Scattered Clouds
3:55 AM 73.4 °F - - N/A% 29.80 in 10.0 mi Calm Calm - N/A   Clear
4:15 AM 73.4 °F - - N/A% 29.80 in 7.0 mi Calm Calm - N/A   Clear
4:35 AM 73.4 °F - - N/A% 29.81 in 5.0 mi Calm Calm - N/A   Mostly Cloudy
4:55 AM 73.4 °F - - N/A% 29.81 in 7.0 mi Calm Calm - N/A   Overcast
5:15 AM 73.4 °F - - N/A% 29.82 in 7.0 mi Calm Calm - N/A   Overcast
5:35 AM 73.4 °F - - N/A% 29.82 in 5.0 mi Calm Calm - N/A   Overcast
5:55 AM 73.4 °F - - N/A% 29.83 in 5.0 mi Calm Calm - N/A   Overcast
6:15 AM 73.4 °F - - N/A% 29.84 in 4.0 mi Calm Calm - N/A   Overcast
6:35 AM 73.4 °F - - N/A% 29.84 in 4.0 mi North 3.5 mph - N/A   Overcast
6:55 AM 73.4 °F - - N/A% 29.85 in 4.0 mi North 3.5 mph - N/A   Overcast
7:15 AM 73.4 °F - - N/A% 29.86 in 4.0 mi Calm Calm - N/A   Scattered Clouds
7:35 AM 75.2 °F - - N/A% 29.86 in 4.0 mi Calm Calm - N/A   Mostly Cloudy
7:55 AM 75.2 °F - - N/A% 29.87 in 5.0 mi North 3.5 mph - N/A   Overcast
8:15 AM 75.2 °F - - N/A% 29.88 in 7.0 mi North 3.5 mph - N/A   Overcast
8:35 AM 75.2 °F - - N/A% 29.89 in 7.0 mi Calm Calm - N/A   Overcast
8:55 AM 75.2 °F - - N/A% 29.89 in 7.0 mi North 3.5 mph - N/A   Overcast
9:15 AM 75.2 °F - - N/A% 29.90 in 7.0 mi North 4.6 mph - N/A   Overcast
9:35 AM 75.2 °F - - N/A% 29.90 in 10.0 mi North 4.6 mph - N/A   Overcast
9:55 AM 77.0 °F - 77.0 °F 100% 29.90 in 10.0 mi NNE 5.8 mph - N/A   Overcast
10:15 AM 78.8 °F - 78.8 °F 100% 29.90 in 10.0 mi NNE 5.8 mph - N/A   Overcast
10:35 AM 80.6 °F 87.1 °F 77.0 °F 89% 29.90 in 10.0 mi NNE 4.6 mph - N/A   Mostly Cloudy
10:55 AM 80.6 °F 86.2 °F 75.2 °F 84% 29.90 in 10.0 mi North 4.6 mph 9.2 mph N/A   Mostly Cloudy
11:15 AM 80.6 °F 86.2 °F 75.2 °F 84% 29.91 in 10.0 mi NNE 4.6 mph - N/A   Mostly Cloudy
11:35 AM 80.6 °F 86.2 °F 75.2 °F 84% 29.91 in 10.0 mi North 4.6 mph - N/A   Mostly Cloudy
11:55 AM 80.6 °F 86.2 °F 75.2 °F 84% 29.90 in 10.0 mi North 5.8 mph - N/A   Scattered Clouds
12:15 PM 82.4 °F 89.5 °F 75.2 °F 79% 29.91 in 10.0 mi NNW 5.8 mph - N/A   Mostly Cloudy
12:35 PM 82.4 °F 89.5 °F 75.2 °F 79% 29.91 in 10.0 mi North 6.9 mph - N/A   Mostly Cloudy
12:55 PM 82.4 °F 89.5 °F 75.2 °F 79% 29.91 in 10.0 mi Calm Calm - N/A   Mostly Cloudy
1:15 PM 82.4 °F 89.5 °F 75.2 °F 79% 29.92 in 10.0 mi NE 6.9 mph - N/A   Mostly Cloudy
1:35 PM 82.4 °F 88.2 °F 73.4 °F 74% 29.92 in 10.0 mi NE 5.8 mph - N/A   Mostly Cloudy
1:55 PM 86.0 °F 93.4 °F 73.4 °F 66% 29.92 in 10.0 mi ENE 12.7 mph 17.3 mph N/A   Scattered Clouds
2:15 PM 84.2 °F 92.3 °F 75.2 °F 74% 29.93 in 10.0 mi ENE 11.5 mph 19.6 mph N/A   Scattered Clouds
2:35 PM 82.4 °F 88.2 °F 73.4 °F 74% 29.92 in 10.0 mi ENE 10.4 mph - N/A   Mostly Cloudy
2:55 PM 84.2 °F 90.9 °F 73.4 °F 70% 29.92 in 10.0 mi ENE 10.4 mph 18.4 mph N/A   Scattered Clouds
3:15 PM 84.2 °F 90.9 °F 73.4 °F 70% 29.92 in 10.0 mi NE 13.8 mph 19.6 mph N/A   Scattered Clouds
3:35 PM 82.4 °F 88.2 °F 73.4 °F 74% 29.93 in 10.0 mi ENE 12.7 mph - N/A   Scattered Clouds
3:55 PM 82.4 °F 87.2 °F 71.6 °F 70% 29.93 in 10.0 mi ENE 17.3 mph 26.5 mph N/A   Scattered Clouds
4:15 PM 82.4 °F 87.2 °F 71.6 °F 70% 29.94 in 10.0 mi East 16.1 mph 23.0 mph N/A   Clear
4:35 PM 82.4 °F 87.2 °F 71.6 °F 70% 29.94 in 10.0 mi ENE 16.1 mph 20.7 mph N/A   Clear
4:55 PM 82.4 °F 86.3 °F 69.8 °F 66% 29.95 in 10.0 mi East 13.8 mph 18.4 mph N/A   Clear
5:15 PM 82.4 °F 87.2 °F 71.6 °F 70% 29.95 in 10.0 mi ENE 12.7 mph - N/A   Clear
5:35 PM 82.4 °F 86.3 °F 69.8 °F 66% 29.96 in 10.0 mi East 10.4 mph - N/A   Clear
5:55 PM 80.6 °F 83.9 °F 69.8 °F 70% 29.95 in 10.0 mi ENE 11.5 mph 16.1 mph N/A   Clear
6:15 PM 80.6 °F 83.9 °F 69.8 °F 70% 29.95 in 10.0 mi East 11.5 mph - N/A   Clear
6:35 PM 78.8 °F - 69.8 °F 74% 29.96 in 10.0 mi ENE 11.5 mph - N/A   Clear
6:55 PM 78.8 °F - 69.8 °F 74% 29.97 in 10.0 mi ENE 9.2 mph - N/A   Clear
7:15 PM 77.0 °F - 69.8 °F 78% 29.97 in 10.0 mi ENE 6.9 mph - N/A   Clear
7:35 PM 75.2 °F - 69.8 °F 83% 29.98 in 10.0 mi ENE 8.1 mph - N/A   Clear
7:55 PM 75.2 °F - 69.8 °F 83% 29.98 in 10.0 mi East 5.8 mph - N/A   Clear
8:15 PM 73.4 °F - 69.8 °F 88% 29.99 in 10.0 mi East 4.6 mph - N/A   Clear
8:35 PM 73.4 °F - 69.8 °F 88% 30.00 in 10.0 mi East 4.6 mph - N/A   Clear
8:55 PM 71.6 °F - 69.8 °F 94% 30.01 in 10.0 mi Calm Calm - N/A   Clear
9:15 PM 71.6 °F - 69.8 °F 94% 30.01 in 10.0 mi Calm Calm - N/A   Clear
9:35 PM 71.6 °F - 69.8 °F 94% 30.01 in 10.0 mi Calm Calm - N/A   Clear
9:55 PM 69.8 °F - 69.8 °F 100% 30.02 in 10.0 mi Calm Calm - N/A   Clear
10:15 PM 69.8 °F - 69.8 °F 100% 30.02 in 7.0 mi Calm Calm - N/A   Clear
10:35 PM 69.8 °F - 69.8 °F 100% 30.02 in 7.0 mi Calm Calm - N/A   Clear
10:55 PM 69.8 °F - 69.8 °F 100% 30.02 in 7.0 mi Calm Calm - N/A   Clear
11:15 PM 68.0 °F - 68.0 °F 100% 30.02 in 4.0 mi Calm Calm - N/A   Clear
11:35 PM 68.0 °F - - N/A% 30.02 in 5.0 mi Calm Calm - N/A   Clear
11:55 PM 66.2 °F - - N/A% 30.02 in 7.0 mi Calm Calm - N/A   Clear